Meteo Giornale » Osservazioni meteo Gran Bretagna » Fairford Royal

ore: 16:56 - Osservazioni Meteo Fairford Royal
Lat. 51° 41' N Lon. 1° 47' W Alt. 87 metri s.l.m.

sereno Europe/London

24 °C

Sereno

Temp. 24 Ore

16 °C

28 °C

Nord-Est

24 Km/h

Dew point 15 °C

Umidità 57 %

Visibilità  10 Km

Il sole sorge alle ore 05:15

Il sole tramonta alle ore 21:11

Data e Ora Cielo e Fenomeni T °C DP °C Um. % Pres. hPa Vis. km Vento km/h
Oggi h: 16:56 sereno Sereno 24 15 57 1013 10 NE 24
Oggi h: 15:56 sereno Sereno 25 15 53 1013 10 NE 20.3
Oggi h: 14:56 sereno Sereno 25 15 53 1014 10 NE 24
Oggi h: 13:56 poco_nuvoloso Poco Nuvoloso 24 15 57 1014 10 NE 22.2
Oggi h: 12:56 poco_nuvoloso Poco Nuvoloso 24 15 57 1016 10 E/NE 27.8
Oggi h: 11:56 sereno Sereno 24 16 60 1016 10 E/NE 27.8
Oggi h: 10:56 sereno Sereno 23 16 64 1017 10 E/NE 25.9
Oggi h: 09:56 sereno Sereno 21 16 73 1017 10 E/NE 18.5
Oggi h: 08:56 sereno Sereno 19 16 82 1018 10 E/NE 13
Oggi h: 07:56 sereno Sereno 18 16 88 1018 10 E/NE 14.8
Oggi h: 06:56 sereno Sereno 17 16 93 1018 10 E/NE 11.1
Oggi h: 05:56 foschia Foschia 16 16 100 1018 6 N/NE 7.4
Oggi h: 04:56 foschia Foschia 17 16 93 1018 9 N 5.5
Oggi h: 03:56 sereno Sereno 17 17 100 1019 10 N 0
Oggi h: 02:56 sereno Sereno 19 16 82 1019 10 N 0
Oggi h: 01:56 sereno Sereno 19 16 82 1019 10 N 0
Oggi h: 00:56 nuvoloso Nuvoloso 19 17 88 1020 10 SO 7.4
Ieri h: 23:56 poco_nuvoloso Poco Nuvoloso 20 16 77 1020 10 S 11.1
Ieri h: 22:56 sereno Sereno 21 16 73 1019 10 S 9.3
Ieri h: 21:56 sereno Sereno 23 17 68 1019 10 NE 7.4
Ieri h: 20:56 sereno Sereno 25 15 53 1019 10 N 5.5
Ieri h: 19:56 sereno Sereno 27 14 44 1019 10 E/SE 9.3
Ieri h: 18:56 sereno Sereno 28 14 42 1019 10 E 13
Ieri h: 17:56 sereno Sereno 28 13 39 1020 10 E 11.1